Weather History for KINS - March, 2013

Change the Weather History Date:

Friday, March 8, 2013

  Actual Average (KDRA) Record (KDRA)
Temperature  
Mean Temperature 44 °F -  
Max Temperature 47 °F 62 °F 78 °F (2005)
Min Temperature 40 °F 38 °F 28 °F (1999)
Degree Days  
Heating Degree Days 21    
Moisture  
Dew Point 37 °F    
Average Humidity 79    
Maximum Humidity 87    
Minimum Humidity 55    
Precipitation  
Precipitation 0.00 in - - ()
Sea Level Pressure  
Sea Level Pressure 29.74 in    
Wind  
Wind Speed 8 mph (NW)    
Max Wind Speed 18 mph    
Max Gust Speed -    
Visibility 9 miles    
Events Rain    
Averages and records for this station are not official NWS values.
T = Trace of Precipitation, MM = Missing Value Source: NWS Daily Summary

Daily Weather History Graph

Daily Weather History Graph

Search for Another Location

Airport or City:

Trip Planner

Search our weather history database for the weather conditions in past years. The results will help you decide how hot, cold, wet, or windy it might be!

Date:

Astronomy

Mar. 08, 2013 Rise Set
Actual Time 6:03 AM PST 5:44 PM PST
Civil Twilight 5:37 AM PST 6:09 PM PST
Nautical Twilight 5:07 AM PST 6:39 PM PST
Astronomical Twilight 4:37 AM PST 7:09 PM PST
Moon 3:46 AM PST (3/8) 2:47 PM PST (3/8)
Length of Visible Light 12h 32m
Length of Day
11h 40m
Waning Crescent, 11% of the Moon is Illuminated
Mar 8
Waning Crescent
Mar 11
New
Mar 19
First Quarter
Mar 27
Full
Apr 2
Last Quarter

Hourly Weather History & Observations

Time (PST) Temp. Windchill Dew Point Humidity Pressure Visibility Wind Dir Wind Speed Gust Speed Precip Events Conditions
12:58 AM 45.0 °F 42.6 °F 29.8 °F 55% 29.80 in 10.0 mi SW 4.6 mph - N/A   Partly Cloudy
1:58 AM 43.3 °F 40.7 °F 30.0 °F 59% 29.77 in 10.0 mi NNW 4.6 mph - N/A   Clear
2:58 AM 42.3 °F 38.6 °F 29.8 °F 61% 29.75 in 10.0 mi NNW 5.8 mph - N/A   Partly Cloudy
3:58 AM 44.6 °F 42.2 °F 31.8 °F 61% 29.74 in 10.0 mi WSW 4.6 mph - N/A   Partly Cloudy
4:58 AM 42.6 °F 40.9 °F 31.5 °F 65% 29.74 in 10.0 mi West 3.5 mph - N/A   Mostly Cloudy
5:58 AM 42.6 °F - 31.1 °F 64% 29.72 in 10.0 mi Calm Calm - N/A   Mostly Cloudy
6:58 AM 44.1 °F 39.0 °F 32.0 °F 63% 29.72 in 10.0 mi East 9.2 mph - N/A   Mostly Cloudy
7:43 AM 44.6 °F 38.8 °F 37.4 °F 76% 29.72 in 10.0 mi SE 11.5 mph - N/A   Overcast
7:56 AM 44.6 °F 42.2 °F 39.2 °F 81% 29.73 in 10.0 mi ESE 4.6 mph - N/A Rain Light Rain
7:58 AM 44.6 °F 40.7 °F 39.2 °F 81% 29.73 in 10.0 mi ESE 6.9 mph - 0.00 in Rain Light Rain
8:13 AM 44.6 °F 40.2 °F 39.2 °F 81% 29.74 in 8.0 mi East 8.1 mph - N/A Rain Light Rain
8:38 AM 44.6 °F 41.4 °F 39.2 °F 81% 29.73 in 8.0 mi North 5.8 mph - N/A Rain Light Rain
8:58 AM 43.7 °F - 37.9 °F 80% 29.73 in 10.0 mi North 2.3 mph - 0.00 in Rain Light Rain
9:00 AM 42.8 °F 40.1 °F 37.4 °F 81% 29.73 in 10.0 mi NNE 4.6 mph - N/A Rain Light Rain
9:10 AM 42.8 °F 39.3 °F 39.2 °F 87% 29.73 in 10.0 mi North 5.8 mph - N/A Rain Light Rain
9:15 AM 42.8 °F 39.3 °F 39.2 °F 87% 29.73 in 10.0 mi NNW 5.8 mph - N/A Rain Light Rain
9:17 AM 42.8 °F 38.6 °F 39.2 °F 87% 29.73 in 10.0 mi North 6.9 mph - N/A Rain Light Rain
9:27 AM 42.8 °F 37.0 °F 37.4 °F 81% 29.73 in 10.0 mi North 10.4 mph - N/A Rain Light Rain
9:37 AM 42.8 °F 37.5 °F 37.4 °F 81% 29.73 in 10.0 mi North 9.2 mph - N/A Rain Light Rain
9:41 AM 42.8 °F 38.0 °F 37.4 °F 81% 29.73 in 10.0 mi North 8.1 mph - N/A Rain Light Rain
9:46 AM 42.8 °F 37.5 °F 39.2 °F 87% 29.73 in 10.0 mi North 9.2 mph - N/A Rain Light Rain
9:58 AM 43.5 °F 38.3 °F 38.8 °F 84% 29.73 in 10.0 mi North 9.2 mph - 0.00 in Rain Light Rain
10:20 AM 44.6 °F 40.2 °F 39.2 °F 81% 29.73 in 10.0 mi North 8.1 mph - N/A   Light Drizzle
10:58 AM 44.1 °F 39.0 °F 38.7 °F 81% 29.72 in 10.0 mi East 9.2 mph - 0.00 in Rain Light Rain
11:07 AM 44.6 °F 39.7 °F 39.2 °F 81% 29.72 in 10.0 mi ENE 9.2 mph - N/A   Overcast
11:22 AM 44.6 °F 39.7 °F 39.2 °F 81% 29.72 in 10.0 mi East 9.2 mph - N/A   Overcast
11:32 AM 46.4 °F 42.4 °F 41.0 °F 81% 29.72 in 10.0 mi ENE 8.1 mph - N/A   Overcast
11:52 AM 46.4 °F 42.9 °F 39.2 °F 76% 29.71 in 10.0 mi ENE 6.9 mph - N/A   Overcast
11:58 AM 47.1 °F - 39.7 °F 76% 29.71 in 10.0 mi East 11.5 mph - 0.00 in   Overcast
12:35 PM 46.4 °F 43.5 °F 39.2 °F 76% 29.70 in 10.0 mi North 5.8 mph - N/A Rain Light Rain
12:53 PM 46.4 °F 42.4 °F 39.2 °F 76% 29.70 in 6.0 mi NW 8.1 mph - N/A Rain Light Rain
12:58 PM 45.5 °F 40.8 °F 39.6 °F 80% 29.70 in 6.0 mi NW 9.2 mph - 0.00 in Rain Light Rain
1:08 PM 44.6 °F 39.7 °F 39.2 °F 81% 29.70 in 5.0 mi WNW 9.2 mph - N/A Rain Rain
1:21 PM 42.8 °F 35.8 °F 39.2 °F 87% 29.69 in 4.0 mi West 13.8 mph - N/A Rain Heavy Rain
1:53 PM 42.8 °F 37.5 °F 39.2 °F 87% 29.70 in 6.0 mi West 9.2 mph - N/A Rain Rain
1:58 PM 43.0 °F 36.4 °F 38.8 °F 85% 29.70 in 6.0 mi WSW 12.7 mph - 0.00 in Rain Rain
2:28 PM 42.8 °F 36.2 °F 39.2 °F 87% 29.71 in 10.0 mi West 12.7 mph - N/A Rain Light Rain
2:58 PM 42.8 °F - 37.9 °F 83% 29.71 in 9.0 mi ENE 1.2 mph - 0.00 in Rain Rain
3:17 PM 42.8 °F 41.1 °F 37.4 °F 81% 29.70 in 9.0 mi Variable 3.5 mph - N/A Rain Light Rain
3:58 PM 43.5 °F - 37.2 °F 78% 29.69 in 10.0 mi North 2.3 mph - 0.00 in Rain Light Rain
4:18 PM 44.6 °F 38.4 °F 37.4 °F 76% 29.70 in 10.0 mi WNW 12.7 mph - N/A Rain Light Rain
4:58 PM 42.6 °F 35.2 °F 37.8 °F 83% 29.71 in 10.0 mi West 15.0 mph - 0.00 in Rain Light Rain
5:58 PM 42.1 °F 33.6 °F 36.9 °F 82% 29.72 in 10.0 mi West 18.4 mph - 0.00 in Rain Light Rain
6:44 PM 42.8 °F 37.0 °F 35.6 °F 76% 29.74 in 10.0 mi West 10.4 mph - N/A   Overcast
6:58 PM 43.0 °F 35.4 °F 35.8 °F 76% 29.75 in 10.0 mi West 16.1 mph - 0.00 in   Overcast
7:58 PM 41.9 °F 33.7 °F 36.9 °F 82% 29.77 in 10.0 mi West 17.3 mph - N/A   Overcast
8:56 PM 41.0 °F 33.1 °F 37.4 °F 87% 29.79 in 10.0 mi West 15.0 mph - N/A Rain Light Rain
8:58 PM 41.0 °F 33.1 °F 37.4 °F 87% 29.79 in 10.0 mi West 15.0 mph - N/A Rain Light Rain
9:44 PM 41.0 °F 33.1 °F 35.6 °F 81% 29.80 in 10.0 mi West 15.0 mph - N/A   Overcast
9:58 PM 41.7 °F 33.4 °F 35.6 °F 79% 29.80 in 10.0 mi West 17.3 mph - 0.00 in   Overcast
10:42 PM 42.8 °F 35.4 °F 35.6 °F 76% 29.80 in 10.0 mi West 15.0 mph - N/A Rain Light Rain
10:52 PM 41.0 °F 33.1 °F 35.6 °F 81% 29.81 in 10.0 mi West 15.0 mph - N/A Rain Light Rain
10:57 PM 41.0 °F 32.8 °F 35.6 °F 81% 29.81 in 10.0 mi West 16.1 mph - N/A Rain Light Rain
10:58 PM 41.7 °F 34.1 °F 35.2 °F 78% 29.81 in 10.0 mi West 15.0 mph - 0.00 in Rain Light Rain
11:03 PM 41.0 °F 32.5 °F 35.6 °F 81% 29.81 in 10.0 mi West 17.3 mph - N/A Rain Light Rain
11:07 PM 41.0 °F 33.1 °F 35.6 °F 81% 29.81 in 10.0 mi West 15.0 mph - N/A   Overcast
11:38 PM 41.0 °F 32.2 °F 35.6 °F 81% 29.82 in 10.0 mi West 18.4 mph - N/A Rain Light Rain
11:58 PM 40.8 °F 32.3 °F 35.8 °F 82% 29.82 in 10.0 mi West 17.3 mph - 0.00 in Rain Light Rain